owner,sensor,date,latitude,longitude,vertical_datum,sea_water_practical_salinity,qcFlag 
NERRS,ioos:station:NOAA.NERRS:gndbhwq:1,2015-04-01T00:00:00Z,30.4178,-88.4054,1.25,7.5,1111122 
NERRS,ioos:station:NOAA.NERRS:gndbhwq:1,2015-04-01T01:00:00Z,30.4178,-88.4054,1.24,9.5,1111122 
NERRS,ioos:station:NOAA.NERRS:gndbhwq:1,2015-04-01T02:00:00Z,30.4178,-88.4054,1.22,12.0,1111122 
NERRS,ioos:station:NOAA.NERRS:gndbhwq:1,2015-04-01T03:00:00Z,30.4178,-88.4054,1.18,12.8,1111122 
NERRS,ioos:station:NOAA.NERRS:gndbhwq:1,2015-04-01T04:00:00Z,30.4178,-88.4054,1.11,14.0,1111122 
NERRS,ioos:station:NOAA.NERRS:gndbhwq:1,2015-04-01T06:00:00Z,30.4178,-88.4054,1.08,12.4,1111122 
NERRS,ioos:station:NOAA.NERRS:gndbhwq:1,2015-04-01T07:00:00Z,30.4178,-88.4054,0.98,12.5,1111122 
NERRS,ioos:station:NOAA.NERRS:gndbhwq:1,2015-04-01T08:00:00Z,30.4178,-88.4054,1.0,13.1,1111122 
NERRS,ioos:station:NOAA.NERRS:gndbhwq:1,2015-04-01T09:00:00Z,30.4178,-88.4054,0.98,14.3,1111122 
NERRS,ioos:station:NOAA.NERRS:gndbhwq:1,2015-04-01T10:00:00Z,30.4178,-88.4054,1.02,14.7,1111122 
NERRS,ioos:station:NOAA.NERRS:gndbhwq:1,2015-04-01T11:00:00Z,30.4178,-88.4054,1.02,14.5,1111122 
NERRS,ioos:station:NOAA.NERRS:gndbhwq:1,2015-04-01T12:00:00Z,30.4178,-88.4054,1.05,15.1,1111122 
NERRS,ioos:station:NOAA.NERRS:gndbhwq:1,2015-04-01T13:00:00Z,30.4178,-88.4054,1.04,15.5,1111122 
NERRS,ioos:station:NOAA.NERRS:gndbhwq:1,2015-04-01T14:00:00Z,30.4178,-88.4054,1.05,15.9,1111122 
NERRS,ioos:station:NOAA.NERRS:gndbhwq:1,2015-04-01T15:00:00Z,30.4178,-88.4054,1.07,16.1,1111122 
NERRS,ioos:station:NOAA.NERRS:gndbhwq:1,2015-04-01T16:00:00Z,30.4178,-88.4054,1.12,16.2,1111122 
NERRS,ioos:station:NOAA.NERRS:gndbhwq:1,2015-04-01T17:00:00Z,30.4178,-88.4054,1.17,15.5,1111122 
NERRS,ioos:station:NOAA.NERRS:gndbhwq:1,2015-04-01T18:00:00Z,30.4178,-88.4054,1.13,15.2,1111122 
NERRS,ioos:station:NOAA.NERRS:gndbhwq:1,2015-04-01T19:00:00Z,30.4178,-88.4054,1.11,14.1,1111122 
NERRS,ioos:station:NOAA.NERRS:gndbhwq:1,2015-04-01T20:00:00Z,30.4178,-88.4054,1.03,12.5,1111122 
NERRS,ioos:station:NOAA.NERRS:gndbhwq:1,2015-04-01T21:00:00Z,30.4178,-88.4054,1.06,11.2,1111122 
NERRS,ioos:station:NOAA.NERRS:gndbhwq:1,2015-04-01T22:00:00Z,30.4178,-88.4054,1.1,10.1,1111122 
NERRS,ioos:station:NOAA.NERRS:gndbhwq:1,2015-04-01T23:00:00Z,30.4178,-88.4054,1.19,12.3,1111122 
NERRS,ioos:station:NOAA.NERRS:gndbhwq:1,2015-04-02T00:00:00Z,30.4178,-88.4054,1.22,13.4,1111122 
NERRS,ioos:station:NOAA.NERRS:gndbhwq:1,2015-04-02T01:00:00Z,30.4178,-88.4054,1.17,13.9,1111122 
NERRS,ioos:station:NOAA.NERRS:gndbhwq:1,2015-04-02T02:00:00Z,30.4178,-88.4054,1.19,13.5,1111122 
NERRS,ioos:station:NOAA.NERRS:gndbhwq:1,2015-04-02T03:00:00Z,30.4178,-88.4054,1.18,12.2,1111122 
NERRS,ioos:station:NOAA.NERRS:gndbhwq:1,2015-04-02T04:00:00Z,30.4178,-88.4054,1.19,12.6,1111122 
NERRS,ioos:station:NOAA.NERRS:gndbhwq:1,2015-04-02T05:00:00Z,30.4178,-88.4054,1.17,12.8,1111122 
NERRS,ioos:station:NOAA.NERRS:gndbhwq:1,2015-04-02T06:00:00Z,30.4178,-88.4054,1.15,13.1,1111122 
NERRS,ioos:station:NOAA.NERRS:gndbhwq:1,2015-04-02T07:00:00Z,30.4178,-88.4054,1.12,11.4,1111122 
NERRS,ioos:station:NOAA.NERRS:gndbhwq:1,2015-04-02T08:00:00Z,30.4178,-88.4054,1.06,10.7,1111122 
NERRS,ioos:station:NOAA.NERRS:gndbhwq:1,2015-04-02T09:00:00Z,30.4178,-88.4054,1.09,10.9,1111122 
NERRS,ioos:station:NOAA.NERRS:gndbhwq:1,2015-04-02T10:00:00Z,30.4178,-88.4054,1.1,11.5,1111122 
NERRS,ioos:station:NOAA.NERRS:gndbhwq:1,2015-04-02T11:00:00Z,30.4178,-88.4054,1.1,12.5,1111122 
NERRS,ioos:station:NOAA.NERRS:gndbhwq:1,2015-04-02T12:00:00Z,30.4178,-88.4054,1.18,13.0,1111122 
NERRS,ioos:station:NOAA.NERRS:gndbhwq:1,2015-04-02T13:00:00Z,30.4178,-88.4054,1.27,12.8,1111122 
NERRS,ioos:station:NOAA.NERRS:gndbhwq:1,2015-04-02T14:00:00Z,30.4178,-88.4054,1.21,10.8,1111122 
NERRS,ioos:station:NOAA.NERRS:gndbhwq:1,2015-04-02T15:00:00Z,30.4178,-88.4054,1.25,9.7,1111122 
NERRS,ioos:station:NOAA.NERRS:gndbhwq:1,2015-04-02T16:00:00Z,30.4178,-88.4054,1.21,8.2,1111122 
NERRS,ioos:station:NOAA.NERRS:gndbhwq:1,2015-04-02T17:00:00Z,30.4178,-88.4054,1.27,8.7,1111122 
NERRS,ioos:station:NOAA.NERRS:gndbhwq:1,2015-04-02T18:00:00Z,30.4178,-88.4054,1.26,3.5,1111122 
NERRS,ioos:station:NOAA.NERRS:gndbhwq:1,2015-04-02T19:00:00Z,30.4178,-88.4054,1.2,0.7,1111122 
NERRS,ioos:station:NOAA.NERRS:gndbhwq:1,2015-04-02T20:00:00Z,30.4178,-88.4054,1.16,0.6,1111122 
NERRS,ioos:station:NOAA.NERRS:gndbhwq:1,2015-04-02T21:00:00Z,30.4178,-88.4054,1.12,0.4,1111122 
NERRS,ioos:station:NOAA.NERRS:gndbhwq:1,2015-04-02T22:00:00Z,30.4178,-88.4054,1.12,0.5,1111122 
NERRS,ioos:station:NOAA.NERRS:gndbhwq:1,2015-04-02T23:00:00Z,30.4178,-88.4054,1.14,0.5,1111122 
NERRS,ioos:station:NOAA.NERRS:gndbhwq:1,2015-04-03T00:00:00Z,30.4178,-88.4054,1.22,1.0,1111122 
NERRS,ioos:station:NOAA.NERRS:gndbhwq:1,2015-04-03T01:00:00Z,30.4178,-88.4054,1.25,5.7,1111122 
NERRS,ioos:station:NOAA.NERRS:gndbhwq:1,2015-04-03T02:00:00Z,30.4178,-88.4054,1.25,7.4,1111122 
NERRS,ioos:station:NOAA.NERRS:gndbhwq:1,2015-04-03T03:00:00Z,30.4178,-88.4054,1.21,7.8,1111122 
NERRS,ioos:station:NOAA.NERRS:gndbhwq:1,2015-04-03T04:00:00Z,30.4178,-88.4054,1.23,8.4,1111122 
NERRS,ioos:station:NOAA.NERRS:gndbhwq:1,2015-04-03T05:00:00Z,30.4178,-88.4054,1.22,9.1,1111122 
NERRS,ioos:station:NOAA.NERRS:gndbhwq:1,2015-04-03T06:00:00Z,30.4178,-88.4054,1.19,8.7,1111122 
NERRS,ioos:station:NOAA.NERRS:gndbhwq:1,2015-04-03T07:00:00Z,30.4178,-88.4054,1.15,8.7,1111122 
NERRS,ioos:station:NOAA.NERRS:gndbhwq:1,2015-04-03T08:00:00Z,30.4178,-88.4054,1.14,9.6,1111122 
NERRS,ioos:station:NOAA.NERRS:gndbhwq:1,2015-04-03T09:00:00Z,30.4178,-88.4054,1.11,10.4,1111122 
NERRS,ioos:station:NOAA.NERRS:gndbhwq:1,2015-04-03T10:00:00Z,30.4178,-88.4054,1.14,10.6,1111122 
NERRS,ioos:station:NOAA.NERRS:gndbhwq:1,2015-04-03T11:00:00Z,30.4178,-88.4054,1.09,10.7,1111122 
NERRS,ioos:station:NOAA.NERRS:gndbhwq:1,2015-04-03T12:00:00Z,30.4178,-88.4054,1.16,11.2,1111122 
NERRS,ioos:station:NOAA.NERRS:gndbhwq:1,2015-04-03T13:00:00Z,30.4178,-88.4054,1.25,11.5,1111122 
NERRS,ioos:station:NOAA.NERRS:gndbhwq:1,2015-04-03T14:00:00Z,30.4178,-88.4054,1.23,10.7,1111122 
NERRS,ioos:station:NOAA.NERRS:gndbhwq:1,2015-04-03T15:00:00Z,30.4178,-88.4054,1.22,9.7,1111122 
NERRS,ioos:station:NOAA.NERRS:gndbhwq:1,2015-04-03T16:00:00Z,30.4178,-88.4054,1.24,8.8,1111122 
NERRS,ioos:station:NOAA.NERRS:gndbhwq:1,2015-04-03T17:00:00Z,30.4178,-88.4054,1.24,4.6,1111122 
NERRS,ioos:station:NOAA.NERRS:gndbhwq:1,2015-04-03T18:00:00Z,30.4178,-88.4054,1.25,3.1,1111122 
NERRS,ioos:station:NOAA.NERRS:gndbhwq:1,2015-04-03T19:00:00Z,30.4178,-88.4054,1.2,0.9,1111122 
NERRS,ioos:station:NOAA.NERRS:gndbhwq:1,2015-04-03T20:00:00Z,30.4178,-88.4054,1.13,0.5,1111122 
NERRS,ioos:station:NOAA.NERRS:gndbhwq:1,2015-04-03T21:00:00Z,30.4178,-88.4054,1.12,0.5,1111122 
NERRS,ioos:station:NOAA.NERRS:gndbhwq:1,2015-04-03T22:00:00Z,30.4178,-88.4054,1.13,0.5,1111122 
NERRS,ioos:station:NOAA.NERRS:gndbhwq:1,2015-04-03T23:00:00Z,30.4178,-88.4054,1.11,0.4,1111122 
NERRS,ioos:station:NOAA.NERRS:gndbhwq:1,2015-04-04T00:00:00Z,30.4178,-88.4054,1.16,0.5,1111122 
NERRS,ioos:station:NOAA.NERRS:gndbhwq:1,2015-04-04T01:00:00Z,30.4178,-88.4054,1.17,0.6,1111122 
NERRS,ioos:station:NOAA.NERRS:gndbhwq:1,2015-04-04T02:00:00Z,30.4178,-88.4054,1.21,2.9,1111122 
NERRS,ioos:station:NOAA.NERRS:gndbhwq:1,2015-04-04T03:00:00Z,30.4178,-88.4054,1.19,5.0,1111122 
NERRS,ioos:station:NOAA.NERRS:gndbhwq:1,2015-04-04T04:00:00Z,30.4178,-88.4054,1.23,8.5,1111122 
NERRS,ioos:station:NOAA.NERRS:gndbhwq:1,2015-04-04T06:00:00Z,30.4178,-88.4054,1.14,9.1,1111122 
NERRS,ioos:station:NOAA.NERRS:gndbhwq:1,2015-04-04T07:00:00Z,30.4178,-88.4054,1.11,9.5,1111122 
NERRS,ioos:station:NOAA.NERRS:gndbhwq:1,2015-04-04T08:00:00Z,30.4178,-88.4054,1.09,10.1,1111122 
NERRS,ioos:station:NOAA.NERRS:gndbhwq:1,2015-04-04T09:00:00Z,30.4178,-88.4054,1.05,10.1,1111122 
NERRS,ioos:station:NOAA.NERRS:gndbhwq:1,2015-04-04T10:00:00Z,30.4178,-88.4054,1.08,10.6,1111122 
NERRS,ioos:station:NOAA.NERRS:gndbhwq:1,2015-04-04T11:00:00Z,30.4178,-88.4054,1.09,11.4,1111122 
NERRS,ioos:station:NOAA.NERRS:gndbhwq:1,2015-04-04T12:00:00Z,30.4178,-88.4054,1.05,11.9,1111122 
NERRS,ioos:station:NOAA.NERRS:gndbhwq:1,2015-04-04T13:00:00Z,30.4178,-88.4054,1.01,12.2,1111122 
NERRS,ioos:station:NOAA.NERRS:gndbhwq:1,2015-04-04T14:00:00Z,30.4178,-88.4054,1.08,13.2,1111122 
NERRS,ioos:station:NOAA.NERRS:gndbhwq:1,2015-04-04T15:00:00Z,30.4178,-88.4054,0.99,13.6,1111122 
NERRS,ioos:station:NOAA.NERRS:gndbhwq:1,2015-04-04T16:00:00Z,30.4178,-88.4054,0.98,14.1,1111122 
NERRS,ioos:station:NOAA.NERRS:gndbhwq:1,2015-04-04T17:00:00Z,30.4178,-88.4054,0.97,14.7,1111122 
NERRS,ioos:station:NOAA.NERRS:gndbhwq:1,2015-04-04T18:00:00Z,30.4178,-88.4054,1.03,15.5,1111122 
NERRS,ioos:station:NOAA.NERRS:gndbhwq:1,2015-04-04T19:00:00Z,30.4178,-88.4054,1.04,16.3,1111122 
NERRS,ioos:station:NOAA.NERRS:gndbhwq:1,2015-04-04T20:00:00Z,30.4178,-88.4054,1.1,17.7,1111122 
NERRS,ioos:station:NOAA.NERRS:gndbhwq:1,2015-04-04T21:00:00Z,30.4178,-88.4054,0.96,17.2,1111122 
NERRS,ioos:station:NOAA.NERRS:gndbhwq:1,2015-04-04T22:00:00Z,30.4178,-88.4054,0.87,16.0,1111122 
NERRS,ioos:station:NOAA.NERRS:gndbhwq:1,2015-04-04T23:00:00Z,30.4178,-88.4054,0.92,18.1,1111122 
NERRS,ioos:station:NOAA.NERRS:gndbhwq:1,2015-04-05T00:00:00Z,30.4178,-88.4054,0.92,18.5,1111122 
NERRS,ioos:station:NOAA.NERRS:gndbhwq:1,2015-04-05T01:00:00Z,30.4178,-88.4054,1.0,18.6,1111122 
NERRS,ioos:station:NOAA.NERRS:gndbhwq:1,2015-04-05T02:00:00Z,30.4178,-88.4054,1.04,18.7,1111122 
NERRS,ioos:station:NOAA.NERRS:gndbhwq:1,2015-04-05T03:00:00Z,30.4178,-88.4054,1.02,19.0,1111122 
NERRS,ioos:station:NOAA.NERRS:gndbhwq:1,2015-04-05T04:00:00Z,30.4178,-88.4054,0.98,18.3,1111122 
NERRS,ioos:station:NOAA.NERRS:gndbhwq:1,2015-04-05T06:00:00Z,30.4178,-88.4054,1.04,18.5,1111122 
NERRS,ioos:station:NOAA.NERRS:gndbhwq:1,2015-04-05T07:00:00Z,30.4178,-88.4054,1.09,18.8,1111122 
NERRS,ioos:station:NOAA.NERRS:gndbhwq:1,2015-04-05T08:00:00Z,30.4178,-88.4054,1.12,18.8,1111122 
NERRS,ioos:station:NOAA.NERRS:gndbhwq:1,2015-04-05T09:00:00Z,30.4178,-88.4054,1.16,18.8,1111122 
NERRS,ioos:station:NOAA.NERRS:gndbhwq:1,2015-04-05T10:00:00Z,30.4178,-88.4054,1.15,18.8,1111122 
NERRS,ioos:station:NOAA.NERRS:gndbhwq:1,2015-04-05T11:00:00Z,30.4178,-88.4054,1.2,18.7,1111122 
NERRS,ioos:station:NOAA.NERRS:gndbhwq:1,2015-04-05T12:00:00Z,30.4178,-88.4054,1.24,19.0,1111122 
NERRS,ioos:station:NOAA.NERRS:gndbhwq:1,2015-04-05T13:00:00Z,30.4178,-88.4054,1.29,18.7,1111122 
NERRS,ioos:station:NOAA.NERRS:gndbhwq:1,2015-04-05T14:00:00Z,30.4178,-88.4054,1.35,18.7,1111122 
NERRS,ioos:station:NOAA.NERRS:gndbhwq:1,2015-04-05T15:00:00Z,30.4178,-88.4054,1.39,18.9,1111122 
NERRS,ioos:station:NOAA.NERRS:gndbhwq:1,2015-04-05T16:00:00Z,30.4178,-88.4054,1.38,18.7,1111122 
NERRS,ioos:station:NOAA.NERRS:gndbhwq:1,2015-04-05T17:00:00Z,30.4178,-88.4054,1.37,18.5,1111122 
NERRS,ioos:station:NOAA.NERRS:gndbhwq:1,2015-04-05T18:00:00Z,30.4178,-88.4054,1.34,18.3,1111122 
NERRS,ioos:station:NOAA.NERRS:gndbhwq:1,2015-04-05T19:00:00Z,30.4178,-88.4054,1.31,17.8,1111122 
NERRS,ioos:station:NOAA.NERRS:gndbhwq:1,2015-04-05T20:00:00Z,30.4178,-88.4054,1.19,17.5,1111122 
NERRS,ioos:station:NOAA.NERRS:gndbhwq:1,2015-04-05T21:00:00Z,30.4178,-88.4054,1.12,17.3,1111122 
NERRS,ioos:station:NOAA.NERRS:gndbhwq:1,2015-04-05T22:00:00Z,30.4178,-88.4054,1.07,17.6,1111122 
NERRS,ioos:station:NOAA.NERRS:gndbhwq:1,2015-04-05T23:00:00Z,30.4178,-88.4054,0.98,17.5,1111122 
NERRS,ioos:station:NOAA.NERRS:gndbhwq:1,2015-04-06T00:00:00Z,30.4178,-88.4054,0.98,17.6,1111122 
NERRS,ioos:station:NOAA.NERRS:gndbhwq:1,2015-04-06T01:00:00Z,30.4178,-88.4054,0.97,17.2,1111122 
NERRS,ioos:station:NOAA.NERRS:gndbhwq:1,2015-04-06T02:00:00Z,30.4178,-88.4054,1.06,17.0,1111122 
NERRS,ioos:station:NOAA.NERRS:gndbhwq:1,2015-04-06T03:00:00Z,30.4178,-88.4054,1.08,17.2,1111122 
NERRS,ioos:station:NOAA.NERRS:gndbhwq:1,2015-04-06T04:00:00Z,30.4178,-88.4054,1.17,17.5,1111122 
NERRS,ioos:station:NOAA.NERRS:gndbhwq:1,2015-04-06T05:00:00Z,30.4178,-88.4054,1.06,17.5,1111122 
NERRS,ioos:station:NOAA.NERRS:gndbhwq:1,2015-04-06T06:00:00Z,30.4178,-88.4054,1.21,17.3,1111122 
NERRS,ioos:station:NOAA.NERRS:gndbhwq:1,2015-04-06T07:00:00Z,30.4178,-88.4054,1.23,17.3,1111122 
NERRS,ioos:station:NOAA.NERRS:gndbhwq:1,2015-04-06T08:00:00Z,30.4178,-88.4054,1.21,17.1,1111122 
NERRS,ioos:station:NOAA.NERRS:gndbhwq:1,2015-04-06T09:00:00Z,30.4178,-88.4054,1.21,17.1,1111122 
NERRS,ioos:station:NOAA.NERRS:gndbhwq:1,2015-04-06T10:00:00Z,30.4178,-88.4054,1.12,16.9,1111122 
NERRS,ioos:station:NOAA.NERRS:gndbhwq:1,2015-04-06T11:00:00Z,30.4178,-88.4054,1.17,16.8,1111122 
NERRS,ioos:station:NOAA.NERRS:gndbhwq:1,2015-04-06T12:00:00Z,30.4178,-88.4054,1.27,17.1,1111122 
NERRS,ioos:station:NOAA.NERRS:gndbhwq:1,2015-04-06T13:00:00Z,30.4178,-88.4054,1.31,17.2,1111122 
NERRS,ioos:station:NOAA.NERRS:gndbhwq:1,2015-04-06T14:00:00Z,30.4178,-88.4054,1.4,17.3,1111122 
NERRS,ioos:station:NOAA.NERRS:gndbhwq:1,2015-04-06T15:00:00Z,30.4178,-88.4054,1.4,17.5,1111122 
NERRS,ioos:station:NOAA.NERRS:gndbhwq:1,2015-04-06T16:00:00Z,30.4178,-88.4054,1.43,17.4,1111122 
NERRS,ioos:station:NOAA.NERRS:gndbhwq:1,2015-04-06T17:00:00Z,30.4178,-88.4054,1.42,17.0,1111122 
NERRS,ioos:station:NOAA.NERRS:gndbhwq:1,2015-04-06T18:00:00Z,30.4178,-88.4054,1.41,16.7,1111122 
NERRS,ioos:station:NOAA.NERRS:gndbhwq:1,2015-04-06T19:00:00Z,30.4178,-88.4054,1.34,16.0,1111122 
NERRS,ioos:station:NOAA.NERRS:gndbhwq:1,2015-04-06T20:00:00Z,30.4178,-88.4054,1.26,15.8,1111122 
NERRS,ioos:station:NOAA.NERRS:gndbhwq:1,2015-04-06T21:00:00Z,30.4178,-88.4054,1.19,15.9,1111122 
NERRS,ioos:station:NOAA.NERRS:gndbhwq:1,2015-04-06T22:00:00Z,30.4178,-88.4054,1.14,15.6,1111122 
NERRS,ioos:station:NOAA.NERRS:gndbhwq:1,2015-04-06T23:00:00Z,30.4178,-88.4054,1.07,15.4,1111122 
NERRS,ioos:station:NOAA.NERRS:gndbhwq:1,2015-04-07T00:00:00Z,30.4178,-88.4054,1.04,15.4,1111122 
NERRS,ioos:station:NOAA.NERRS:gndbhwq:1,2015-04-07T01:00:00Z,30.4178,-88.4054,1.05,15.3,1111122 
NERRS,ioos:station:NOAA.NERRS:gndbhwq:1,2015-04-07T02:00:00Z,30.4178,-88.4054,1.09,15.4,1111122 
NERRS,ioos:station:NOAA.NERRS:gndbhwq:1,2015-04-07T03:00:00Z,30.4178,-88.4054,1.14,15.6,1111122 
NERRS,ioos:station:NOAA.NERRS:gndbhwq:1,2015-04-07T04:00:00Z,30.4178,-88.4054,1.09,15.1,1111122 
NERRS,ioos:station:NOAA.NERRS:gndbhwq:1,2015-04-07T06:00:00Z,30.4178,-88.4054,1.14,15.4,1111122 
NERRS,ioos:station:NOAA.NERRS:gndbhwq:1,2015-04-07T07:00:00Z,30.4178,-88.4054,1.24,15.6,1111122 
NERRS,ioos:station:NOAA.NERRS:gndbhwq:1,2015-04-07T08:00:00Z,30.4178,-88.4054,1.15,15.8,1111122 
NERRS,ioos:station:NOAA.NERRS:gndbhwq:1,2015-04-07T09:00:00Z,30.4178,-88.4054,1.18,15.8,1111122 
NERRS,ioos:station:NOAA.NERRS:gndbhwq:1,2015-04-07T10:00:00Z,30.4178,-88.4054,1.17,15.9,1111122 
NERRS,ioos:station:NOAA.NERRS:gndbhwq:1,2015-04-07T11:00:00Z,30.4178,-88.4054,1.25,15.9,1111122 
NERRS,ioos:station:NOAA.NERRS:gndbhwq:1,2015-04-07T12:00:00Z,30.4178,-88.4054,1.31,16.0,1111122 
NERRS,ioos:station:NOAA.NERRS:gndbhwq:1,2015-04-07T13:00:00Z,30.4178,-88.4054,1.35,16.2,1111122 
NERRS,ioos:station:NOAA.NERRS:gndbhwq:1,2015-04-07T14:00:00Z,30.4178,-88.4054,1.37,16.2,1111122 
NERRS,ioos:station:NOAA.NERRS:gndbhwq:1,2015-04-07T15:00:00Z,30.4178,-88.4054,1.41,16.3,1111122 
NERRS,ioos:station:NOAA.NERRS:gndbhwq:1,2015-04-07T16:00:00Z,30.4178,-88.4054,1.39,16.0,1111122 
NERRS,ioos:station:NOAA.NERRS:gndbhwq:1,2015-04-07T17:00:00Z,30.4178,-88.4054,1.4,16.2,1111122 
NERRS,ioos:station:NOAA.NERRS:gndbhwq:1,2015-04-07T18:00:00Z,30.4178,-88.4054,1.35,15.9,1111122 
NERRS,ioos:station:NOAA.NERRS:gndbhwq:1,2015-04-07T19:00:00Z,30.4178,-88.4054,1.28,15.8,1111122 
NERRS,ioos:station:NOAA.NERRS:gndbhwq:1,2015-04-07T20:00:00Z,30.4178,-88.4054,1.24,15.6,1111122 
NERRS,ioos:station:NOAA.NERRS:gndbhwq:1,2015-04-07T21:00:00Z,30.4178,-88.4054,1.16,14.1,1111122 
NERRS,ioos:station:NOAA.NERRS:gndbhwq:1,2015-04-07T22:00:00Z,30.4178,-88.4054,1.1,14.5,1111122 
NERRS,ioos:station:NOAA.NERRS:gndbhwq:1,2015-04-07T23:00:00Z,30.4178,-88.4054,1.02,14.2,1111122 
NERRS,ioos:station:NOAA.NERRS:gndbhwq:1,2015-04-08T00:00:00Z,30.4178,-88.4054,0.96,14.1,1111122 
NERRS,ioos:station:NOAA.NERRS:gndbhwq:1,2015-04-08T01:00:00Z,30.4178,-88.4054,0.96,13.3,1111122 
NERRS,ioos:station:NOAA.NERRS:gndbhwq:1,2015-04-08T02:00:00Z,30.4178,-88.4054,0.99,12.6,1111122 
NERRS,ioos:station:NOAA.NERRS:gndbhwq:1,2015-04-08T03:00:00Z,30.4178,-88.4054,1.01,12.1,1111122 
NERRS,ioos:station:NOAA.NERRS:gndbhwq:1,2015-04-08T04:00:00Z,30.4178,-88.4054,1.0,11.7,1111122 
NERRS,ioos:station:NOAA.NERRS:gndbhwq:1,2015-04-08T06:00:00Z,30.4178,-88.4054,1.03,12.9,1111122 
NERRS,ioos:station:NOAA.NERRS:gndbhwq:1,2015-04-08T07:00:00Z,30.4178,-88.4054,1.06,13.5,1111122 
NERRS,ioos:station:NOAA.NERRS:gndbhwq:1,2015-04-08T08:00:00Z,30.4178,-88.4054,1.13,14.2,1111122 
NERRS,ioos:station:NOAA.NERRS:gndbhwq:1,2015-04-08T09:00:00Z,30.4178,-88.4054,1.1,14.3,1111122 
NERRS,ioos:station:NOAA.NERRS:gndbhwq:1,2015-04-08T10:00:00Z,30.4178,-88.4054,1.13,14.4,1111122 
NERRS,ioos:station:NOAA.NERRS:gndbhwq:1,2015-04-08T11:00:00Z,30.4178,-88.4054,1.16,14.9,1111122 
NERRS,ioos:station:NOAA.NERRS:gndbhwq:1,2015-04-08T12:00:00Z,30.4178,-88.4054,1.21,15.0,1111122 
NERRS,ioos:station:NOAA.NERRS:gndbhwq:1,2015-04-08T13:00:00Z,30.4178,-88.4054,1.25,15.4,1111122 
NERRS,ioos:station:NOAA.NERRS:gndbhwq:1,2015-04-08T14:00:00Z,30.4178,-88.4054,1.35,15.6,1111122 
NERRS,ioos:station:NOAA.NERRS:gndbhwq:1,2015-04-08T15:00:00Z,30.4178,-88.4054,1.39,15.7,1111122 
NERRS,ioos:station:NOAA.NERRS:gndbhwq:1,2015-04-08T16:00:00Z,30.4178,-88.4054,1.43,15.7,1111122 
NERRS,ioos:station:NOAA.NERRS:gndbhwq:1,2015-04-08T17:00:00Z,30.4178,-88.4054,1.41,15.8,1111122 
NERRS,ioos:station:NOAA.NERRS:gndbhwq:1,2015-04-08T18:00:00Z,30.4178,-88.4054,1.42,15.7,1111122 
NERRS,ioos:station:NOAA.NERRS:gndbhwq:1,2015-04-08T19:00:00Z,30.4178,-88.4054,1.34,15.6,1111122 
NERRS,ioos:station:NOAA.NERRS:gndbhwq:1,2015-04-08T20:00:00Z,30.4178,-88.4054,1.34,15.5,1111122 
NERRS,ioos:station:NOAA.NERRS:gndbhwq:1,2015-04-08T21:00:00Z,30.4178,-88.4054,1.29,15.4,1111122 
NERRS,ioos:station:NOAA.NERRS:gndbhwq:1,2015-04-08T22:00:00Z,30.4178,-88.4054,1.21,15.2,1111122 
NERRS,ioos:station:NOAA.NERRS:gndbhwq:1,2015-04-08T23:00:00Z,30.4178,-88.4054,1.12,15.0,1111122 
NERRS,ioos:station:NOAA.NERRS:gndbhwq:1,2015-04-09T00:00:00Z,30.4178,-88.4054,1.09,14.7,1111122 
NERRS,ioos:station:NOAA.NERRS:gndbhwq:1,2015-04-09T01:00:00Z,30.4178,-88.4054,1.02,14.4,1111122 
NERRS,ioos:station:NOAA.NERRS:gndbhwq:1,2015-04-09T02:00:00Z,30.4178,-88.4054,1.01,14.1,1111122 
NERRS,ioos:station:NOAA.NERRS:gndbhwq:1,2015-04-09T03:00:00Z,30.4178,-88.4054,1.04,14.0,1111122 
NERRS,ioos:station:NOAA.NERRS:gndbhwq:1,2015-04-09T04:00:00Z,30.4178,-88.4054,1.07,14.1,1111122 
NERRS,ioos:station:NOAA.NERRS:gndbhwq:1,2015-04-09T06:00:00Z,30.4178,-88.4054,1.04,13.8,1111122 
NERRS,ioos:station:NOAA.NERRS:gndbhwq:1,2015-04-09T07:00:00Z,30.4178,-88.4054,1.05,13.7,1111122 
NERRS,ioos:station:NOAA.NERRS:gndbhwq:1,2015-04-09T08:00:00Z,30.4178,-88.4054,1.07,13.5,1111122 
NERRS,ioos:station:NOAA.NERRS:gndbhwq:1,2015-04-09T09:00:00Z,30.4178,-88.4054,1.18,13.7,1111122 
NERRS,ioos:station:NOAA.NERRS:gndbhwq:1,2015-04-09T10:00:00Z,30.4178,-88.4054,1.2,14.2,1111122 
NERRS,ioos:station:NOAA.NERRS:gndbhwq:1,2015-04-09T11:00:00Z,30.4178,-88.4054,1.23,14.6,1111122 
NERRS,ioos:station:NOAA.NERRS:gndbhwq:1,2015-04-09T12:00:00Z,30.4178,-88.4054,1.26,14.4,1111122 
NERRS,ioos:station:NOAA.NERRS:gndbhwq:1,2015-04-09T13:00:00Z,30.4178,-88.4054,1.32,14.5,1111122 
NERRS,ioos:station:NOAA.NERRS:gndbhwq:1,2015-04-09T14:00:00Z,30.4178,-88.4054,1.34,14.3,1111122 
NERRS,ioos:station:NOAA.NERRS:gndbhwq:1,2015-04-09T15:00:00Z,30.4178,-88.4054,1.41,14.4,1111122 
NERRS,ioos:station:NOAA.NERRS:gndbhwq:1,2015-04-09T16:00:00Z,30.4178,-88.4054,1.45,14.3,1111122 
NERRS,ioos:station:NOAA.NERRS:gndbhwq:1,2015-04-09T17:00:00Z,30.4178,-88.4054,1.48,14.5,1111122 
NERRS,ioos:station:NOAA.NERRS:gndbhwq:1,2015-04-09T18:00:00Z,30.4178,-88.4054,1.46,14.4,1111122 
NERRS,ioos:station:NOAA.NERRS:gndbhwq:1,2015-04-09T19:00:00Z,30.4178,-88.4054,1.43,14.1,1111122 
NERRS,ioos:station:NOAA.NERRS:gndbhwq:1,2015-04-09T20:00:00Z,30.4178,-88.4054,1.33,14.2,1111122 
NERRS,ioos:station:NOAA.NERRS:gndbhwq:1,2015-04-09T21:00:00Z,30.4178,-88.4054,1.26,14.2,1111122 
NERRS,ioos:station:NOAA.NERRS:gndbhwq:1,2015-04-09T22:00:00Z,30.4178,-88.4054,1.24,14.3,1111122 
NERRS,ioos:station:NOAA.NERRS:gndbhwq:1,2015-04-09T23:00:00Z,30.4178,-88.4054,1.16,13.9,1111122 
NERRS,ioos:station:NOAA.NERRS:gndbhwq:1,2015-04-10T00:00:00Z,30.4178,-88.4054,1.12,13.6,1111122 
NERRS,ioos:station:NOAA.NERRS:gndbhwq:1,2015-04-10T01:00:00Z,30.4178,-88.4054,1.02,13.2,1111122 
NERRS,ioos:station:NOAA.NERRS:gndbhwq:1,2015-04-10T02:00:00Z,30.4178,-88.4054,0.99,13.2,1111122 
NERRS,ioos:station:NOAA.NERRS:gndbhwq:1,2015-04-10T03:00:00Z,30.4178,-88.4054,1.01,13.1,1111122 
NERRS,ioos:station:NOAA.NERRS:gndbhwq:1,2015-04-10T04:00:00Z,30.4178,-88.4054,0.99,12.7,1111122 
NERRS,ioos:station:NOAA.NERRS:gndbhwq:1,2015-04-10T06:00:00Z,30.4178,-88.4054,0.95,11.1,1111122 
NERRS,ioos:station:NOAA.NERRS:gndbhwq:1,2015-04-10T07:00:00Z,30.4178,-88.4054,1.05,12.1,1111122 
NERRS,ioos:station:NOAA.NERRS:gndbhwq:1,2015-04-10T08:00:00Z,30.4178,-88.4054,1.06,11.9,1111122 
NERRS,ioos:station:NOAA.NERRS:gndbhwq:1,2015-04-10T09:00:00Z,30.4178,-88.4054,1.12,12.8,1111122 
NERRS,ioos:station:NOAA.NERRS:gndbhwq:1,2015-04-10T10:00:00Z,30.4178,-88.4054,1.15,13.3,1111122 
NERRS,ioos:station:NOAA.NERRS:gndbhwq:1,2015-04-10T11:00:00Z,30.4178,-88.4054,1.18,13.6,1111122 
NERRS,ioos:station:NOAA.NERRS:gndbhwq:1,2015-04-10T12:00:00Z,30.4178,-88.4054,1.29,13.6,1111122 
NERRS,ioos:station:NOAA.NERRS:gndbhwq:1,2015-04-10T13:00:00Z,30.4178,-88.4054,1.27,14.1,1111122 
NERRS,ioos:station:NOAA.NERRS:gndbhwq:1,2015-04-10T14:00:00Z,30.4178,-88.4054,1.33,14.1,1111122 
NERRS,ioos:station:NOAA.NERRS:gndbhwq:1,2015-04-10T15:00:00Z,30.4178,-88.4054,1.37,14.2,1111122 
NERRS,ioos:station:NOAA.NERRS:gndbhwq:1,2015-04-10T15:45:00Z,30.4178,-88.4054,1.42,14.1,1111122 
NERRS,ioos:station:NOAA.NERRS:gndbhwq:1,2015-04-10T16:45:00Z,30.4178,-88.4054,1.44,14.1,1111122 
NERRS,ioos:station:NOAA.NERRS:gndbhwq:1,2015-04-10T19:00:00Z,30.4178,-88.4054,1.44,14.0,1111122 
NERRS,ioos:station:NOAA.NERRS:gndbhwq:1,2015-04-10T20:00:00Z,30.4178,-88.4054,1.38,13.9,1111122 
NERRS,ioos:station:NOAA.NERRS:gndbhwq:1,2015-04-10T21:00:00Z,30.4178,-88.4054,1.32,13.6,1111122 
NERRS,ioos:station:NOAA.NERRS:gndbhwq:1,2015-04-10T22:00:00Z,30.4178,-88.4054,1.28,13.7,1111122 
NERRS,ioos:station:NOAA.NERRS:gndbhwq:1,2015-04-10T23:00:00Z,30.4178,-88.4054,1.22,14.0,1111122 
NERRS,ioos:station:NOAA.NERRS:gndbhwq:1,2015-04-11T00:00:00Z,30.4178,-88.4054,1.18,13.7,1111122 
NERRS,ioos:station:NOAA.NERRS:gndbhwq:1,2015-04-11T01:00:00Z,30.4178,-88.4054,1.09,14.0,1111122 
NERRS,ioos:station:NOAA.NERRS:gndbhwq:1,2015-04-11T02:00:00Z,30.4178,-88.4054,0.98,13.8,1111122 
NERRS,ioos:station:NOAA.NERRS:gndbhwq:1,2015-04-11T03:00:00Z,30.4178,-88.4054,0.92,13.9,1111122 
NERRS,ioos:station:NOAA.NERRS:gndbhwq:1,2015-04-11T04:00:00Z,30.4178,-88.4054,0.85,13.9,1111122 
NERRS,ioos:station:NOAA.NERRS:gndbhwq:1,2015-04-11T05:00:00Z,30.4178,-88.4054,0.9,14.1,1111122 
NERRS,ioos:station:NOAA.NERRS:gndbhwq:1,2015-04-11T06:00:00Z,30.4178,-88.4054,0.85,14.2,1111122 
NERRS,ioos:station:NOAA.NERRS:gndbhwq:1,2015-04-11T07:00:00Z,30.4178,-88.4054,0.92,14.4,1111122 
NERRS,ioos:station:NOAA.NERRS:gndbhwq:1,2015-04-11T08:00:00Z,30.4178,-88.4054,0.95,14.3,1111122 
NERRS,ioos:station:NOAA.NERRS:gndbhwq:1,2015-04-11T09:00:00Z,30.4178,-88.4054,0.95,14.5,1111122 
NERRS,ioos:station:NOAA.NERRS:gndbhwq:1,2015-04-11T10:00:00Z,30.4178,-88.4054,1.02,14.5,1111122 
NERRS,ioos:station:NOAA.NERRS:gndbhwq:1,2015-04-11T11:00:00Z,30.4178,-88.4054,0.98,14.6,1111122 
NERRS,ioos:station:NOAA.NERRS:gndbhwq:1,2015-04-11T12:00:00Z,30.4178,-88.4054,1.08,14.5,1111122 
NERRS,ioos:station:NOAA.NERRS:gndbhwq:1,2015-04-11T13:00:00Z,30.4178,-88.4054,1.1,14.6,1111122 
NERRS,ioos:station:NOAA.NERRS:gndbhwq:1,2015-04-11T14:00:00Z,30.4178,-88.4054,1.2,14.8,1111122 